Regional Weather Roundup
Issued by NWS

Home | Current Version | Previous Version | Graphics & Text | Print | Product List | Glossary On
Versions: 1 2 3 4 5 6 7 8 9 10 11 12 13 14 15 16 17 18 19 20 21 22 23 24 25 26 27 28 29 30 31 32 33 34 35 36 37 38 39 40 41 42 43 44 45 46 47 48 49 50
000
ASUS43 KMPX 271701
RWRMN
WEATHER ROUNDUP FOR MINNESOTA
NATIONAL WEATHER SERVICE TWIN CITIES/CHANHASSEN MN
1200 PM CDT WED MAY 27 2015


NOTE: "FAIR" INDICATES FEW OR NO CLOUDS BELOW 12,000 FEET WITH NO
SIGNIFICANT WEATHER AND/OR OBSTRUCTIONS TO VISIBILITY. N/A MEANS
CURRENT SKY AND/OR WEATHER CONDITIONS ARE NOT AVAILABLE.

MNZ060>063-068>070-271800-
   Twin Cities Metro

CITY           SKY/WX    TMP DP  RH WIND       PRES   REMARKS
TWIN CITIES    SUNNY     75  57  53 W9        29.94R
ST PAUL        SUNNY     74  57  55 SW9       29.94R
CRYSTAL        SUNNY     74  57  55 SW9       29.93R
BLAINE         SUNNY     75  57  53 SW10      29.93R
LAKEVILLE      SUNNY     72  61  68 SW8       29.95R
EDEN PRAIRIE   SUNNY     72  61  68 SW9       29.94R
SOUTH ST PAUL  SUNNY     74  57  54 W7        29.94R
LAKE ELMO      FAIR      73  61  64 SW10      29.95R
$$
MNZ001>005-007-008-013>017-022>024-027-028-271800-
   Northwest Minnesota

CITY           SKY/WX    TMP DP  RH WIND       PRES   REMARKS
BEMIDJI        MOSUNNY   74  48  39 N8        29.93R
HALLOCK        SUNNY     66  46  48 N13       29.97S
ROSEAU         SUNNY     68  48  49 N7        29.95R
WARROAD        SUNNY     66  52  59 NW6       29.95R
THIEF RVR FALL SUNNY     68  48  49 NW8       29.95S
CROOKSTON      SUNNY     70  48  46 N12       29.96S
FOSSTON        SUNNY     73  48  40 CALM      29.95S
DETROIT LAKES  SUNNY     72  54  53 N6        29.96S
MOORHEAD       SUNNY     72  52  49 N5        29.96R
PARK RAPIDS    SUNNY     78  47  33 N9        29.93R
MAHNOMEN       FAIR      71  52  49 NW7       29.94S
$$
MNZ006-009>011-018-025>026-271800-
   North Central Minnesota

CITY           SKY/WX    TMP DP  RH WIND       PRES   REMARKS
BAUDETTE       SUNNY     66  49  54 NW10      29.93R
FLAG ISLAND    SUNNY     61  48  63 NW15      29.94R
INTL FALLS     SUNNY     74  51  44 N9        29.88R
WASKISH        SUNNY     66  55  68 SW10      29.92R
BIG FORK       MOSUNNY   75  50  41 CALM      29.90R
LONGVILLE      MOSUNNY   70  52  52 NW6       29.92R
GRAND RAPIDS   MOSUNNY   73  54  49 NW8       29.91R
CRANE LAKE     SUNNY     72  50  46 N7        29.88R
ORR            SUNNY     73  46  38 NW7       29.85R
COOK           MOSUNNY   75  50  41 W9        29.88R
WALKER         FAIR      72  49  42 N6        29.92R
$$
MNZ012-019>021-037-271800-
   Northeast Minnesota

CITY           SKY/WX    TMP DP  RH WIND       PRES   REMARKS
DULUTH         SUNNY     77  54  44 W10       29.87R
HIBBING        SUNNY     78  45  30 NW8       29.87R
EVELETH        SUNNY     75  50  41 W8        29.88R
DULUTH HARBOR  SUNNY     75  61  60 SW8       29.85S
TWO HARBORS    SUNNY     82  57  42 W5        29.82S
SILVER BAY     SUNNY     81  48  32 W7        29.81S
GRAND MARAIS     N/A     49  42  77 W15G21    29.79R
G MARAIS ARPRT MOSUNNY   75  41  29 W10G16    29.83S
$$
MNZ029>031-032-039>041-046>048-054>057-064-271800-
   West Central Minnesota

CITY           SKY/WX    TMP DP  RH WIND       PRES   REMARKS
FERGUS FALLS   SUNNY     73  57  56 NW7       29.95S
WHEATON        SUNNY     73  55  53 N5        29.97R
MORRIS         SUNNY     77  55  47 NW9       29.95R
ALEXANDRIA     SUNNY     75  55  49 W9        29.97R
ELBOW LAKE     FAIR      71  57  60 W8        29.96R
WADENA         SUNNY     75  55  50 NW7       29.94R
GLENWOOD       SUNNY     77  54  44 NW9       29.96R
APPLETON       SUNNY     79  54  41 NW8       29.96R
BENSON         SUNNY     79  52  38 N7        29.95S
ORTONVILLE     SUNNY     77  54  44 NW8       29.97R
MADISON        SUNNY     77  52  41 NW7       29.97R
WILLMAR        FAIR      75  57  53 NW8       29.97R
$$
MNZ033>034-036-042>043-049>051-058-059-271800-
   Central Minnesota

CITY           SKY/WX    TMP DP  RH WIND       PRES   REMARKS
ST CLOUD       SUNNY     75  58  55 W8        29.93R
SAUK CENTRE    FAIR      76  56  49 W8        29.94S
PAYNESVILLE    SUNNY     73  56  54 SW8       29.95R
AITKIN         MOSUNNY   73  57  56 SW5       29.90R
PINE RIVER     SUNNY     73  54  49 NW5       29.95R
BRAINERD       SUNNY     74  54  49 N6        29.92R
STAPLES        SUNNY     75  52  43 NW5       29.93R
LONG PRAIRIE   FAIR      73  54  49 NW5       29.95R
LITTLE FALLS   SUNNY     73  52  46 NW8       29.93R
LITCHFIELD     SUNNY     75  61  60 W7        29.95S
BUFFALO        SUNNY     73  58  59 SW6       29.95R
MAPLE LAKE     SUNNY     75  61  62 SW6       29.94R
$$
MNZ037-044-045-052-053-271800-
   East Central Minnesota

CITY           SKY/WX    TMP DP  RH WIND       PRES   REMARKS
PRINCETON      SUNNY     77  57  50 SW8       29.92R
MORA           SUNNY     73  55  53 W5        29.92S
CAMBRIDGE      SUNNY     77  59  53 SW5       29.91R
RUSH CITY      SUNNY     73  59  61 W6        29.92R
MOOSE LAKE     MOSUNNY   72  63  73 SW3       29.88R
HINCKLEY       FAIR      73  59  60 W8        29.91R
CLOQUET        SUNNY     79  54  41 W9        29.88S
MCGREGOR       MOSUNNY   72  55  56 CALM      29.91R
$$
MNZ071>073-080-081-089-090-097-098-271800-
   Southwest Minnesota

CITY           SKY/WX    TMP DP  RH WIND       PRES   REMARKS
MONTEVIDEO     SUNNY     77  57  50 NW6       29.98R
GRANITE FALLS  SUNNY     77  55  46 W8        29.98R
CANBY          SUNNY     76  52  42 NW5       30.00R
MARSHALL       SUNNY     77  52  41 NW10G16   29.98R
REDWOOD FALLS  SUNNY     76  57  51 W12       29.97R
OLIVIA         SUNNY     72  55  56 W10       29.96R
PIPESTONE      SUNNY     75  52  43 W12       30.02R
WINDOM         SUNNY     77  57  50 W7        30.01R
WORTHINGTON    SUNNY     75  54  46 W10       30.02R
JACKSON        SUNNY     75  55  50 W10       30.01R
TRACY          SUNNY     77  54  45 W7        30.00R
SLAYTON        SUNNY     75  53  46 W10       30.02R
$$
MNZ065>067-074>077-082>085-091>093-271800-
   South Central Minnesota

CITY           SKY/WX    TMP DP  RH WIND       PRES   REMARKS
MANKATO        SUNNY     72  59  64 W6        29.98R
NEW ULM        SUNNY     73  59  60 W10       29.97R
ST JAMES       SUNNY     75  61  60 SW9       29.99R
FAIRMONT       SUNNY     75  54  46 W8        29.99S
GLENCOE        SUNNY     74  62  65 W7        29.95R
FARIBAULT      SUNNY     73  61  64 SW9       29.97R
OWATONNA       SUNNY     73  59  60 SW9       29.98R
WASECA         SUNNY     72  59  64 SW10      30.00R
ALBERT LEA     SUNNY     73  57  56 SW7       29.99R
$$
MNZ078>079-086>088-094>096-271800-
   Southeast Minnesota

CITY           SKY/WX    TMP DP  RH WIND       PRES   REMARKS
ROCHESTER      SUNNY     72  60  66 SW15      30.00R
RED WING       SUNNY     75  57  53 SW9       29.94R
STANTON        SUNNY     74  60  59 SW12      29.95R
DODGE CENTER   SUNNY     73  59  60 SW14      29.99R
WINONA         SUNNY     73  59  60 W7        29.97S
AUSTIN         SUNNY     72  61  68 SW10      30.00R
PRESTON        SUNNY     71  58  63 W10       30.01R
$$
ABBREVIATIONS USED IN REMARKS
   TC - TEMPERATURES IN CELSIUS
  WCI - WIND CHILL INDEX
   HX - HEAT INDEX
  VSB - VISIBILITY
$$



USA.gov is the U.S. government's official web portal to all federal, state and local government web resources and services.